| time (UTC) | temp F | wind direction | speed MPH | gust MPH | rain 1hr in | rain 24hr in | rain mn in | humidity % | barometer mb |
| 20260503192459 | 80 | 217 | 8.0 | 15.0 | 0.00 | 0.00 | 0.00 | 39 | 1017.4 |
| 20260503192000 | 80 | 228 | 7.0 | 14.0 | 0.00 | 0.00 | 0.00 | 41 | 1017.4 |
| 20260503191459 | 80 | 239 | 7.0 | 13.0 | 0.00 | 0.00 | 0.00 | 39 | 1017.4 |
| 20260503191001 | 80 | 220 | 7.0 | 15.0 | 0.00 | 0.00 | 0.00 | 41 | 1017.5 |
| 20260503190459 | 80 | 228 | 9.0 | 17.0 | 0.00 | 0.00 | 0.00 | 40 | 1017.6 |
| 20260503190000 | 80 | 240 | 10.0 | 17.0 | 0.00 | 0.00 | 0.00 | 40 | 1017.7 |
| 20260503185500 | 79 | 228 | 8.0 | 17.0 | 0.00 | 0.00 | 0.00 | 41 | 1017.7 |
| 20260503184500 | 79 | 255 | 9.0 | 18.0 | 0.00 | 0.00 | 0.00 | 41 | 1017.9 |
| 20260503184000 | 79 | 241 | 10.0 | 18.0 | 0.00 | 0.00 | 0.00 | 43 | 1017.9 |
| 20260503183500 | 79 | 235 | 9.0 | 20.0 | 0.00 | 0.00 | 0.00 | 43 | 1018.0 |
| 20260503183000 | 79 | 224 | 10.0 | 20.0 | 0.00 | 0.00 | 0.00 | 42 | 1018.0 |
| 20260503181459 | 79 | 227 | 11.0 | 20.0 | 0.00 | 0.00 | 0.00 | 44 | 1018.4 |
| 20260503181000 | 79 | 223 | 8.0 | 18.0 | 0.00 | 0.00 | 0.00 | 45 | 1018.5 |
| 20260503180501 | 79 | 230 | 12.0 | 20.0 | 0.00 | 0.00 | 0.00 | 44 | 1018.5 |
| 20260503180000 | 79 | 215 | 6.0 | 20.0 | 0.00 | 0.00 | 0.00 | 48 | 1018.5 |
| 20260503175500 | 79 | 215 | 8.0 | 17.0 | 0.00 | 0.00 | 0.00 | 48 | 1018.7 |
| 20260503174500 | 78 | 231 | 10.0 | 17.0 | 0.00 | 0.00 | 0.00 | 46 | 1018.9 |
| 20260503174001 | 78 | 229 | 7.0 | 18.0 | 0.00 | 0.00 | 0.00 | 49 | 1018.9 |
| 20260503173002 | 78 | 229 | 9.0 | 17.0 | 0.00 | 0.00 | 0.00 | 46 | 1019.0 |
| 20260503172001 | 78 | 230 | 11.0 | 17.0 | 0.00 | 0.00 | 0.00 | 48 | 1019.2 |
| 20260503171501 | 78 | 236 | 10.0 | 16.0 | 0.00 | 0.00 | 0.00 | 48 | 1019.3 |
| 20260503170500 | 78 | 223 | 5.0 | 14.0 | 0.00 | 0.00 | 0.00 | 52 | 1019.4 |
| 20260503151001 | 71 | 230 | 12.0 | 17.0 | 0.00 | 0.00 | 0.00 | 58 | 1019.9 |
| 20260503131002 | 57 | 180 | 2.0 | 3.0 | 0.00 | 0.00 | 0.00 | 87 | 1019.8 |
| 20260503130503 | 56 | 258 | 2.0 | 3.0 | 0.00 | 0.00 | 0.00 | 88 | 1019.8 |
| 20260503110502 | 50 | 268 | 1.0 | 2.0 | 0.00 | 0.00 | 0.00 | 90 | 1018.9 |
| 20260503090503 | 49 | 268 | 0.0 | 0.0 | 0.00 | 0.00 | 0.00 | 89 | 1018.9 |
| 20260503081505 | 50 | 268 | 0.0 | 0.0 | 0.00 | 0.00 | 0.00 | 88 | 1019.1 |
| 20260503081004 | 50 | 268 | 0.0 | 0.0 | 0.00 | 0.00 | 0.00 | 88 | 1018.9 |
| 20260503080503 | 51 | 268 | 0.0 | 0.0 | 0.00 | 0.00 | 0.00 | 88 | 1018.9 |
| 20260503072503 | 52 | 268 | 0.0 | 0.0 | 0.00 | 0.00 | 0.00 | 88 | 1019.1 |
| 20260503072005 | 52 | 268 | 0.0 | 0.0 | 0.00 | 0.00 | 0.00 | 88 | 1019.3 |
| 20260503071506 | 52 | 268 | 0.0 | 0.0 | 0.00 | 0.00 | 0.00 | 88 | 1019.1 |
| 20260503070505 | 52 | 268 | 0.0 | 0.0 | 0.00 | 0.00 | 0.00 | 88 | 1019.1 |
| 20260503054906 | 52 | 268 | 0.0 | 1.0 | 0.00 | 0.00 | 0.00 | 87 | 1018.8 |
| 20260503054404 | 52 | 268 | 0.0 | 0.0 | 0.00 | 0.00 | 0.00 | 87 | 1019.1 |
| 20260503053906 | 52 | 268 | 0.0 | 0.0 | 0.00 | 0.00 | 0.00 | 87 | 1018.8 |
| 20260503053405 | 52 | 268 | 0.0 | 0.0 | 0.00 | 0.00 | 0.00 | 87 | 1018.8 |
| 20260503052906 | 53 | 268 | 0.0 | 0.0 | 0.00 | 0.00 | 0.00 | 87 | 1019.1 |
| 20260503052405 | 53 | 268 | 0.0 | 0.0 | 0.00 | 0.00 | 0.00 | 87 | 1018.8 |
| 20260503051904 | 53 | 268 | 0.0 | 0.0 | 0.00 | 0.00 | 0.00 | 87 | 1018.8 |
| 20260503051405 | 53 | 268 | 0.0 | 0.0 | 0.00 | 0.00 | 0.00 | 86 | 1019.0 |
| 20260503050905 | 53 | 268 | 0.0 | 0.0 | 0.00 | 0.00 | 0.00 | 86 | 1018.7 |
| 20260503050406 | 53 | 268 | 0.0 | 0.0 | 0.00 | 0.00 | 0.00 | 86 | 1018.6 |
| 20260503045906 | 54 | 268 | 0.0 | 0.0 | 0.00 | 0.00 | 0.00 | 86 | 1018.9 |
| 20260503045405 | 54 | 268 | 0.0 | 0.0 | 0.00 | 0.00 | 0.00 | 86 | 1018.7 |
| 20260503044907 | 54 | 268 | 0.0 | 0.0 | 0.00 | 0.00 | 0.00 | 86 | 1018.6 |
| 20260503044405 | 54 | 268 | 0.0 | 0.0 | 0.00 | 0.00 | 0.00 | 86 | 1018.9 |
| 20260503043905 | 54 | 268 | 0.0 | 0.0 | 0.00 | 0.00 | 0.00 | 86 | 1018.7 |
| 20260503042905 | 55 | 268 | 0.0 | 0.0 | 0.00 | 0.00 | 0.00 | 85 | 1018.6 |
| 20260503042405 | 55 | 268 | 0.0 | 0.0 | 0.00 | 0.00 | 0.00 | 85 | 1018.7 |
| 20260503041906 | 55 | 268 | 0.0 | 0.0 | 0.00 | 0.00 | 0.00 | 85 | 1018.6 |
| 20260503041405 | 55 | 268 | 0.0 | 0.0 | 0.00 | 0.00 | 0.00 | 85 | 1018.8 |
| 20260503040406 | 56 | 268 | 0.0 | 0.0 | 0.00 | 0.00 | 0.00 | 84 | 1018.6 |
| 20260503035905 | 56 | 268 | 0.0 | 0.0 | 0.00 | 0.00 | 0.00 | 84 | 1018.6 |
| 20260503034905 | 56 | 268 | 0.0 | 0.0 | 0.00 | 0.00 | 0.00 | 83 | 1018.5 |
| 20260503034407 | 56 | 268 | 0.0 | 0.0 | 0.00 | 0.00 | 0.00 | 83 | 1018.8 |
| 20260503033406 | 57 | 268 | 0.0 | 0.0 | 0.00 | 0.00 | 0.00 | 82 | 1018.5 |
| 20260503032906 | 57 | 268 | 0.0 | 0.0 | 0.00 | 0.00 | 0.00 | 81 | 1018.5 |
| 20260503031906 | 58 | 268 | 0.0 | 0.0 | 0.00 | 0.00 | 0.00 | 80 | 1018.5 |
| 20260503031405 | 59 | 268 | 0.0 | 0.0 | 0.00 | 0.00 | 0.00 | 80 | 1018.6 |
| 20260503030405 | 59 | 268 | 0.0 | 0.0 | 0.00 | 0.00 | 0.00 | 79 | 1018.4 |
| 20260503025906 | 60 | 268 | 0.0 | 0.0 | 0.00 | 0.00 | 0.00 | 79 | 1018.4 |
| 20260503025406 | 60 | 268 | 0.0 | 0.0 | 0.00 | 0.00 | 0.00 | 78 | 1018.5 |
| 20260503024906 | 61 | 268 | 0.0 | 0.0 | 0.00 | 0.00 | 0.00 | 77 | 1018.2 |
| 20260503023906 | 61 | 268 | 0.0 | 0.0 | 0.00 | 0.00 | 0.00 | 76 | 1018.1 |
| 20260503022907 | 62 | 268 | 0.0 | 0.0 | 0.00 | 0.00 | 0.00 | 74 | 1018.1 |
| 20260503021406 | 63 | 268 | 0.0 | 0.0 | 0.00 | 0.00 | 0.00 | 70 | 1018.0 |
| 20260503020906 | 64 | 268 | 0.0 | 0.0 | 0.00 | 0.00 | 0.00 | 70 | 1017.9 |
| 20260503020406 | 65 | 268 | 0.0 | 0.0 | 0.00 | 0.00 | 0.00 | 69 | 1017.9 |
| 20260503015906 | 65 | 268 | 0.0 | 0.0 | 0.00 | 0.00 | 0.00 | 68 | 1017.8 |
| 20260503015405 | 66 | 268 | 0.0 | 2.0 | 0.00 | 0.00 | 0.00 | 66 | 1017.9 |
| 20260503014906 | 66 | 268 | 1.0 | 2.0 | 0.00 | 0.00 | 0.00 | 64 | 1017.8 |
| 20260503014408 | 67 | 268 | 1.0 | 2.0 | 0.00 | 0.00 | 0.00 | 63 | 1017.8 |
| 20260503013906 | 67 | 268 | 1.0 | 3.0 | 0.00 | 0.00 | 0.00 | 62 | 1017.8 |
| 20260503013407 | 68 | 268 | 0.0 | 3.0 | 0.00 | 0.00 | 0.00 | 62 | 1017.7 |
| 20260503012406 | 68 | 268 | 0.0 | 2.0 | 0.00 | 0.00 | 0.00 | 61 | 1017.6 |
| 20260503011906 | 69 | 268 | 0.0 | 2.0 | 0.00 | 0.00 | 0.00 | 59 | 1017.6 |
| 20260503011406 | 70 | 268 | 0.0 | 2.0 | 0.00 | 0.00 | 0.00 | 58 | 1017.6 |
| 20260503010906 | 70 | 268 | 1.0 | 2.0 | 0.00 | 0.00 | 0.00 | 57 | 1017.5 |
| 20260503010407 | 71 | 268 | 1.0 | 2.0 | 0.00 | 0.00 | 0.00 | 56 | 1017.5 |
| 20260503005406 | 72 | 268 | 2.0 | 3.0 | 0.00 | 0.00 | 0.00 | 53 | 1017.5 |
| 20260503004906 | 73 | 268 | 2.0 | 3.0 | 0.00 | 0.00 | 0.00 | 53 | 1017.4 |
| 20260503004407 | 75 | 268 | 1.0 | 3.0 | 0.00 | 0.00 | 0.00 | 51 | 1017.4 |
| 20260503003907 | 75 | 268 | 1.0 | 3.0 | 0.00 | 0.00 | 0.00 | 47 | 1017.4 |
| 20260503003407 | 76 | 268 | 2.0 | 3.0 | 0.00 | 0.00 | 0.00 | 47 | 1017.4 |
| 20260503002907 | 77 | 300 | 0.0 | 2.0 | 0.00 | 0.00 | 0.00 | 44 | 1017.4 |
| 20260503001407 | 78 | 300 | 0.0 | 2.0 | 0.00 | 0.00 | 0.00 | 42 | 1017.4 |
| 20260503000907 | 78 | 300 | 0.0 | 2.0 | 0.00 | 0.00 | 0.00 | 42 | 1017.4 |
| 20260502235907 | 77 | 300 | 0.0 | 3.0 | 0.00 | 0.00 | 0.00 | 43 | 1017.4 |
| 20260502234407 | 76 | 239 | 5.0 | 8.0 | 0.00 | 0.00 | 0.00 | 44 | 1017.5 |
| 20260502233907 | 77 | 180 | 5.0 | 7.0 | 0.00 | 0.00 | 0.00 | 42 | 1017.5 |
| 20260502232907 | 78 | 183 | 2.0 | 3.0 | 0.00 | 0.00 | 0.00 | 43 | 1017.6 |
| 20260502232407 | 78 | 220 | 3.0 | 3.0 | 0.00 | 0.00 | 0.00 | 43 | 1017.6 |
| 20260502231908 | 78 | 182 | 2.0 | 3.0 | 0.00 | 0.00 | 0.00 | 41 | 1017.6 |
| 20260502231407 | 78 | 212 | 2.0 | 6.0 | 0.00 | 0.00 | 0.00 | 40 | 1017.6 |
| 20260502230407 | 79 | 94 | 1.0 | 3.0 | 0.00 | 0.00 | 0.00 | 40 | 1017.7 |
| 20260502225406 | 78 | 94 | 0.0 | 2.0 | 0.00 | 0.00 | 0.00 | 42 | 1017.7 |
| 20260502224907 | 77 | 48 | 0.0 | 3.0 | 0.00 | 0.00 | 0.00 | 45 | 1017.7 |
| 20260502224407 | 75 | 47 | 1.0 | 3.0 | 0.00 | 0.00 | 0.00 | 45 | 1017.8 |
| 20260502223908 | 75 | 63 | 2.0 | 3.0 | 0.00 | 0.00 | 0.00 | 44 | 1017.8 |
| 20260502223408 | 76 | 78 | 1.0 | 3.0 | 0.00 | 0.00 | 0.00 | 51 | 1018.0 |
| 20260502222907 | 77 | 78 | 0.0 | 1.0 | 0.00 | 0.00 | 0.00 | 51 | 1018.0 |
| 20260502222407 | 77 | 78 | 0.0 | 2.0 | 0.00 | 0.00 | 0.00 | 48 | 1018.0 |
| 20260502221908 | 77 | 78 | 1.0 | 3.0 | 0.00 | 0.00 | 0.00 | 44 | 1018.0 |
| 20260502221408 | 77 | 78 | 1.0 | 5.0 | 0.00 | 0.00 | 0.00 | 42 | 1018.0 |
| 20260502220907 | 77 | 78 | 1.0 | 5.0 | 0.00 | 0.00 | 0.00 | 40 | 1018.1 |
| 20260502220408 | 77 | 57 | 2.0 | 6.0 | 0.00 | 0.00 | 0.00 | 41 | 1018.1 |
| 20260502215907 | 77 | 52 | 2.0 | 6.0 | 0.00 | 0.00 | 0.00 | 42 | 1018.1 |
| 20260502215408 | 77 | 61 | 3.0 | 6.0 | 0.00 | 0.00 | 0.00 | 41 | 1018.1 |
| 20260502214908 | 77 | 115 | 1.0 | 6.0 | 0.00 | 0.00 | 0.00 | 41 | 1018.2 |
| 20260502214408 | 76 | 92 | 1.0 | 6.0 | 0.00 | 0.00 | 0.00 | 42 | 1018.2 |
| 20260502213908 | 75 | 99 | 2.0 | 3.0 | 0.00 | 0.00 | 0.00 | 45 | 1018.3 |
| 20260502213408 | 74 | 306 | 1.0 | 3.0 | 0.00 | 0.00 | 0.00 | 45 | 1018.4 |
| 20260502212408 | 76 | 30 | 1.0 | 3.0 | 0.00 | 0.00 | 0.00 | 45 | 1018.5 |
| 20260502211908 | 76 | 45 | 2.0 | 3.0 | 0.00 | 0.00 | 0.00 | 44 | 1018.5 |
| 20260502210908 | 75 | 355 | 1.0 | 6.0 | 0.00 | 0.00 | 0.00 | 42 | 1018.6 |
| 20260502210408 | 75 | 279 | 3.0 | 9.0 | 0.00 | 0.00 | 0.00 | 45 | 1018.7 |
| 20260502205907 | 75 | 302 | 6.0 | 9.0 | 0.00 | 0.00 | 0.00 | 41 | 1018.8 |
| 20260502205408 | 76 | 261 | 3.0 | 7.0 | 0.00 | 0.00 | 0.00 | 42 | 1018.9 |
| 20260502204908 | 76 | 229 | 3.0 | 7.0 | 0.00 | 0.00 | 0.00 | 45 | 1019.1 |
| 20260502204408 | 76 | 209 | 2.0 | 7.0 | 0.00 | 0.00 | 0.00 | 40 | 1019.1 |
| 20260502203908 | 75 | 222 | 3.0 | 7.0 | 0.00 | 0.00 | 0.00 | 41 | 1019.1 |
| 20260502203408 | 75 | 19 | 1.0 | 5.0 | 0.00 | 0.00 | 0.00 | 42 | 1019.2 |
| 20260502202408 | 76 | 313 | 3.0 | 10.0 | 0.00 | 0.00 | 0.00 | 41 | 1019.4 |
| 20260502201908 | 75 | 45 | 3.0 | 10.0 | 0.00 | 0.00 | 0.00 | 42 | 1019.4 |
| 20260502201408 | 77 | 5 | 5.0 | 9.0 | 0.00 | 0.00 | 0.00 | 41 | 1019.3 |
| 20260502200908 | 76 | 126 | 2.0 | 5.0 | 0.00 | 0.00 | 0.00 | 39 | 1019.4 |
| 20260502200408 | 76 | 46 | 3.0 | 5.0 | 0.00 | 0.00 | 0.00 | 39 | 1019.5 |
| 20260502195909 | 77 | 40 | 3.0 | 5.0 | 0.00 | 0.00 | 0.00 | 39 | 1019.6 |
| 20260502194909 | 74 | 136 | 1.0 | 5.0 | 0.00 | 0.00 | 0.00 | 42 | 1019.7 |
| 20260502194408 | 74 | 262 | 1.0 | 8.0 | 0.00 | 0.00 | 0.00 | 41 | 1019.7 |
| 20260502193908 | 74 | 295 | 4.0 | 8.0 | 0.00 | 0.00 | 0.00 | 41 | 1019.8 |
| 20260502192910 | 74 | 317 | 2.0 | 8.0 | 0.00 | 0.00 | 0.00 | 40 | 1019.7 |